Main page
METAR-TAF:

METAR-TAF

Airports :

Oil platform

Ula, Norway

latitude: 59-06-39N, longitude: 2-50-45E, elevation: 0 m

Current weather observation

The report was made 23 minutes ago, at 17:50 UTC
Wind 34 kt from the South/Southeast
Temperature 7°C
Humidity 87%
Pressure 1005 hPa
Visibility 10 km or more

METAR: ENLA 281750Z AUTO 16034KT 9999NDV SCT050/// BKN076/// BKN100/// 07/05 Q1005 W///S4

Time: 19:13 (18:13 UTC)


TAF: missing

Weather observations and forecasts of more than 4000 airports (METAR and TAF reports).

The available stations are represented by yellow and red dots on the map.

Hover mouse over dot to see the name of the station.

Then click to see weather observations and forecasts.

To change the map : click on the green buttons with a black cross to zoom in, on the green button with a dash to zoom out, or on the green arrows for adjacent maps.


METAR-TAF: